DELTA 1 DEB, 5971

Orbit data source: Space-Track

DELTA 1 DEB, 5971 is space debris in SSO originally from a launch on Thu, 26 Jan 1967 UTC launched from the Air Force Western Test Range (AFWTR). Debris objects in space refer to the collection of defunct objects orbiting the Earth. Examples of debris include non-operational satellites, rocket bodies, and fragments generated from explosions, collisions, or faulty payload assembly.

Loading next visibility...
Identifier
5971, 1967-006E
Orbit
SSO
Last TLE update
2 days ago
Origin
Manufacturer
Unknown
Mission
Spacecraft
Bus & Motor
Unknown
Mass
Unknown
Launch date (UTC)
1967-01-26 (58 years ago)
Launch vehicle
Unknown
Launch site
Air Force Western Test Range (AFWTR)
Object type
Payload
Rocket body
Debris
Shape & HBR
Unknown
Radar Cross Section
Small (<0.1 m²)

Expand to show TLE details & history

TLE from 2 days ago
0 DELTA 1 DEB
1 05971U 67006E   25180.25901926 -.00000023  00000-0  12115-3 0  9990
2 05971 101.9207 104.3231 0112647 311.3508 204.0642 12.73468440716168
Epoch: 2025-06-29T06:12Z
TLE epoch observation values (Epoch: 2025-06-29T06:12:59.264Z)
Latitude
24.55351°
Longitude
-81.00223°
Altitude
1,450.378 km
Speed
7.102 km/s
True Right ascension
19h 19m 19s
True Declination
24° 26' 07"
Sunlit
Object was in full shadow at epoch
Visualization orbit readout
Latitude
-49.59249°
Longitude
110.0197°
Altitude
1,299.635 km
Speed
7.247 km/s
Apparent Right ascension
08h 48m 19s
Apparent Declination
-45° 35' 37"
Sunlit
Object is in daylight
Visualization observer readout
Local Sidereal Time
21:34:02
Azimuth
127.871° SE
Elevation
-79.883°
Doppler factor
1
Orbital elements
Apogee altitude
1,452.597 km
Perigee altitude
1,278.141 km
Semi-major axis
7,743.506 km
Eccentricity
0.01126
Inclination
101.9207°
RAAN
104.3231°
Arg. of periapsis
311.3508°
True anomaly
Unknown
Mean anomaly
204.0642°
Eccentric anomaly
Unknown
Mean motion
3.1852 °/min
Orbital period
113.02 mins
BSTAR
0.00012115
Loading maneuver chart data...
Loading SW <> Apogee altitude chart data...
Loading historical data...
Loading historical data...
Loading historical data...
Loading historical data...
Loading historical data...
Loading historical data...
Loading historical data...
Other satellites on launch #6 in the year 1967 (1967-01-26 UTC)

DELTA 1 DEB Visibility forecast

Observer location: undefined°, undefined°

Span
Click to sort rows by Start time (UTC) header in descending order
Start Az.
Max El. time (UTC)
Max El. Az.
Max El.
End time (UTC)
End Az.
14 mins2025-07-01 17:50:40.904Z132.145° SE2025-07-01 17:57:40.904Z65.896° ENE36.061°2025-07-01 18:04:40.904Z355.181° N
12 mins2025-07-01 19:43:40.904Z203.671° SW2025-07-01 19:48:40.904Z257.599° W31.53°2025-07-01 19:55:40.904Z325.028° NNW
14 mins2025-07-02 07:33:40.904Z26.871° NE2025-07-02 07:40:40.904Z115.69° SE41.581°2025-07-02 07:47:40.904Z183.344° SSW
12 mins2025-07-02 09:25:40.904Z351.232° N2025-07-02 09:30:40.904Z303.915° NW27.591°2025-07-02 09:37:40.904Z245.412° WSW
|